Le nostre stazioni meteo in Italia

Pubblicità
Il mio iltempo24.it
Monte Terminillo, Italia (16219): Temperatura & dewpoint: 13.04.2019 17:00:00 - 19.04.2019 17:00:00 (CEST)Monte Terminillo, Italia (16219): velocità del vento & gusts: 13.04.2019 17:00:00 - 19.04.2019 17:00:00 (CEST)Monte Terminillo, Italia (16219): direzione del vento: 13.04.2019 17:00:00 - 19.04.2019 17:00:00 (CEST)Monte Terminillo, Italia (16219): ore di luce: 13.04.2019 17:00:00 - 19.04.2019 17:00:00 (CEST)
Data & Tempo tt [°C] td [°C] ff [km/h] ff [kn] fx [km/h] fx [kn] dd sd [min]
19.04.2019 17:00:00 6,8 -2,8 4 2 - - N 0
19.04.2019 16:00:00 6,5 -2,7 9 5 - - N 0
19.04.2019 15:00:00 7,5 -3,4 16 9 - - SE 0
19.04.2019 14:00:00 6,8 -4,1 11 6 - - N 48
19.04.2019 13:00:00 6,9 -2,8 11 6 - - N 60
19.04.2019 12:00:00 5,8 -2,3 16 9 - - - 60
19.04.2019 11:00:00 4,5 -2,4 15 8 - - E 60
19.04.2019 10:00:00 3,1 -2,8 18 10 - - N 60
19.04.2019 09:00:00 2,9 -2,7 26 14 - - ESE 60
19.04.2019 08:00:00 1,0 -3,0 22 12 - - E 60
19.04.2019 07:00:00 0,9 -2,8 28 15 - - E 0
19.04.2019 06:00:00 1,0 -3,0 28 15 - - E 0
19.04.2019 05:00:00 1,0 -2,7 34 18 - - E 0
19.04.2019 04:00:00 1,2 -3,3 31 17 - - E 0
19.04.2019 03:00:00 1,3 -3,5 31 17 - - E 0
19.04.2019 02:00:00 1,6 -4,3 29 16 - - E 0
19.04.2019 01:00:00 1,5 -4,0 31 17 - - E 0
19.04.2019 00:00:00 1,8 -5,7 35 19 - - E 0
18.04.2019 23:00:00 1,8 -4,3 34 18 - - E 0
18.04.2019 22:00:00 2,6 -3,7 34 18 - - E 0
18.04.2019 21:00:00 3,1 -2,1 31 17 - - E 0
18.04.2019 20:00:00 4,2 -1,4 29 16 - - E 12
18.04.2019 19:00:00 5,1 -1,4 24 13 - - E 0
18.04.2019 18:00:00 5,9 -2,0 16 9 - - E 0
18.04.2019 17:00:00 6,1 -3,3 11 6 - - N 0
18.04.2019 16:00:00 6,0 -3,3 15 8 - - E 36
18.04.2019 15:00:00 6,3 -3,8 21 11 - - E 54
18.04.2019 14:00:00 5,9 -3,1 16 9 - - N 42
18.04.2019 13:00:00 - - 22 12 - - SE 48
18.04.2019 12:00:00 4,5 -4,6 15 8 - - N 60
18.04.2019 11:00:00 4,3 -5,0 16 9 - - N 60
18.04.2019 10:00:00 5,0 -5,4 35 19 - - E 60
18.04.2019 09:00:00 3,4 -7,0 42 23 - - E 60
18.04.2019 08:00:00 2,2 -11,0 39 21 - - E 60
18.04.2019 07:00:00 1,9 -9,4 34 18 - - E 0
18.04.2019 06:00:00 1,5 -9,7 24 13 - - E 0
18.04.2019 05:00:00 1,9 -14,0 29 16 - - E 0
18.04.2019 04:00:00 2,2 -12,4 22 12 - - E 0
18.04.2019 03:00:00 2,9 -12,6 29 16 - - E 0
18.04.2019 02:00:00 3,1 -11,7 22 12 - - E 0
18.04.2019 01:00:00 3,1 -3,5 29 16 - - E 0
18.04.2019 00:00:00 3,3 -2,5 22 12 - - ENE 0
17.04.2019 23:00:00 3,3 -1,4 5 3 - - N 0
17.04.2019 22:00:00 3,4 -0,1 21 11 - - NE 0
17.04.2019 21:00:00 4,0 1,5 18 10 - - ENE 0
17.04.2019 20:00:00 4,9 1,6 5 3 - - SSE 0
17.04.2019 19:00:00 4,5 1,1 8 4 - - NNO 0
17.04.2019 18:00:00 5,3 2,2 9 5 - - ONO 0
17.04.2019 17:00:00 5,2 2,1 13 7 - - NO 0
17.04.2019 16:00:00 6,6 1,1 16 9 - - ONO 0
17.04.2019 15:00:00 6,8 0,6 11 6 - - ONO 0
17.04.2019 14:00:00 7,1 1,6 13 7 - - ONO 12
17.04.2019 13:00:00 6,0 -0,5 8 4 - - N 42
17.04.2019 12:00:00 6,4 0,1 8 4 - - N 42
17.04.2019 11:00:00 4,5 -0,1 9 5 - - N 54
17.04.2019 10:00:00 4,4 -2,7 11 6 - - N 60
17.04.2019 09:00:00 3,7 -2,7 13 7 - - ESE 54
17.04.2019 08:00:00 2,2 -4,6 11 6 - - E 42
17.04.2019 07:00:00 2,0 -6,2 21 11 - - E 0
17.04.2019 06:00:00 2,2 -10,9 18 10 - - E 0
17.04.2019 05:00:00 2,2 -10,7 5 3 - - E 0
17.04.2019 04:00:00 2,0 -10,2 9 5 - - ESE 0
17.04.2019 03:00:00 1,4 -6,7 9 5 - - ESE 0
17.04.2019 02:00:00 1,4 -7,9 5 3 - - SSE 0
17.04.2019 01:00:00 1,3 -8,9 4 2 - - N 0
17.04.2019 00:00:00 1,6 -9,9 8 4 - - NNO 0
16.04.2019 23:00:00 1,4 -7,3 9 5 - - O 0
16.04.2019 22:00:00 1,4 -5,1 4 2 - - NO 0
16.04.2019 21:00:00 1,1 0,2 11 6 - - NO 0
16.04.2019 20:00:00 1,2 1,1 15 8 - - NO 0
16.04.2019 19:00:00 1,5 1,2 11 6 - - N 0
16.04.2019 18:00:00 2,2 0,6 8 4 - - N 0
16.04.2019 17:00:00 2,3 0,7 11 6 - - N 0
16.04.2019 16:00:00 4,3 1,4 8 4 - - N 0
16.04.2019 15:00:00 5,4 -0,3 9 5 - - N 0
16.04.2019 14:00:00 6,5 0,5 9 5 - - N 6
16.04.2019 13:00:00 6,3 0,3 5 3 - - N 30
16.04.2019 12:00:00 6,8 0,2 5 3 - - N 54
16.04.2019 11:00:00 4,2 0,7 4 2 - - N 60
16.04.2019 10:00:00 4,3 0,9 4 2 - - N 24
16.04.2019 09:00:00 3,6 0,1 4 2 - - N 48
16.04.2019 08:00:00 0,4 0,3 8 4 - - O 18
16.04.2019 07:00:00 0,3 0,1 5 3 - - O 0
16.04.2019 06:00:00 0,5 0,1 4 2 - - N 0
16.04.2019 05:00:00 0,5 -0,8 5 3 - - N 0
16.04.2019 04:00:00 0,3 -1,3 4 2 - - N 0
16.04.2019 03:00:00 0,2 -1,9 4 2 - - N 0
16.04.2019 02:00:00 0,6 -2,2 5 3 - - N 0
16.04.2019 01:00:00 0,0 -1,8 5 3 - - SE 0
16.04.2019 00:00:00 0,2 -2,1 9 5 - - ESE 0
15.04.2019 23:00:00 0,3 -1,7 18 10 - - E 0
15.04.2019 22:00:00 0,1 -1,6 18 10 - - ESE 0
15.04.2019 21:00:00 -0,2 -0,9 22 12 - - E 0
15.04.2019 20:00:00 0,4 -0,2 24 13 - - E 0
15.04.2019 19:00:00 0,5 -0,2 18 10 - - E 36
15.04.2019 18:00:00 0,1 -0,1 13 7 - - N 60
15.04.2019 17:00:00 -0,1 -0,5 26 14 - - E 60
15.04.2019 16:00:00 -0,1 -0,2 22 12 - - E 54
15.04.2019 15:00:00 -0,2 -0,4 28 15 - - E 30
15.04.2019 14:00:00 -0,2 -0,6 37 20 - - N 48
15.04.2019 13:00:00 -0,6 -0,8 39 21 - - E 60
15.04.2019 12:00:00 -0,3 -0,6 46 25 - - E 33
15.04.2019 11:00:00 -1,0 -1,2 29 16 - - E 24
15.04.2019 10:00:00 -0,9 -1,1 48 26 70 38 E 14
15.04.2019 09:00:00 -1,4 -1,4 61 33 - - E 12
15.04.2019 08:00:00 -1,4 -1,4 65 35 - - E 0
15.04.2019 07:00:00 -1,6 -1,6 74 40 - - E 0
15.04.2019 06:00:00 -1,6 -1,6 59 32 - - E 0
15.04.2019 05:00:00 -2,0 -2,1 42 23 - - E 0
15.04.2019 04:00:00 -2,1 -2,1 48 26 - - E 0
15.04.2019 03:00:00 -1,9 -1,9 42 23 - - E 0
15.04.2019 02:00:00 -2,3 -2,3 41 22 - - E 0
15.04.2019 01:00:00 -2,6 -2,7 41 22 - - ESE 0
15.04.2019 00:00:00 -2,4 -2,4 28 15 - - E 0
14.04.2019 23:00:00 -2,5 -2,5 24 13 - - E 0
14.04.2019 22:00:00 -2,0 -2,0 21 11 - - ESE 0
14.04.2019 21:00:00 -1,8 -1,9 18 10 - - ESE 0
14.04.2019 20:00:00 -0,5 -0,9 21 11 - - SSE 0
14.04.2019 19:00:00 -0,7 -0,9 8 4 - - N 0
14.04.2019 18:00:00 -1,3 -1,5 5 3 - - N 0
14.04.2019 17:00:00 -1,2 -1,4 5 3 - - N 0
14.04.2019 16:00:00 0,9 -0,2 18 10 - - ONO 0
14.04.2019 15:00:00 0,1 -0,2 11 6 - - N 6
14.04.2019 14:00:00 0,5 0,0 9 5 - - N 0
14.04.2019 13:00:00 0,5 -0,4 8 4 - - N 0
14.04.2019 12:00:00 0,5 -0,2 5 3 - - N 0
14.04.2019 11:00:00 -0,3 -0,9 5 3 - - N 0
14.04.2019 10:00:00 1,0 -0,8 9 5 - - N 0
14.04.2019 09:00:00 -0,7 -0,8 4 2 - - N 14
14.04.2019 08:00:00 -0,8 -0,8 5 3 - - N 0
14.04.2019 07:00:00 -0,7 -0,7 11 6 - - O 0
14.04.2019 06:00:00 -0,5 -0,6 13 7 - - ONO 0
14.04.2019 05:00:00 -0,4 -0,7 15 8 - - ONO 0
14.04.2019 04:00:00 -0,4 -0,5 11 6 - - NO 0
14.04.2019 03:00:00 -0,3 -1,0 11 6 - - NO 0
14.04.2019 02:00:00 -0,3 -0,3 13 7 - - ONO 0
14.04.2019 01:00:00 0,1 -0,2 9 5 - - ONO 0
14.04.2019 00:00:00 -0,2 -0,2 8 4 - - O 0
13.04.2019 23:00:00 0,2 -0,1 5 3 - - O 0
13.04.2019 22:00:00 0,3 -0,4 4 2 - - ONO 0
13.04.2019 21:00:00 0,5 -0,4 4 2 - - N 0
13.04.2019 20:00:00 0,7 0,1 8 4 - - SE 12
13.04.2019 19:00:00 1,1 0,4 5 3 - - NNO 0
13.04.2019 18:00:00 0,9 -0,1 4 2 - - NNO 0
13.04.2019 17:00:00 1,2 0,6 15 8 - - NNO 0

tt = Temperatura
td = dewpoint
ff = velocità del vento
fx = gusts
dd = direzione del vento
sd = ore di luce

Stazioni seguenti

WeatherPro
AMSI
MeteoEarth